Temperature
12 12 12 12 12 12 12 12 12 12 12 12 11 11 11 11 11 11 11 11 11 11 11 10 10 10 10 10 10 10 10 10 10 10 10 10 10 10 10 10 10 10 10
11 11 11 11 11 11 12 12 12 12 11 11 11 11 11 11 11 10 10 10 10 10 10 10 10 10 10 10 10 10 10 10 10 10 10 10 10 10 10 10 10 10 10
11 11 11 11 11 11 11 11 11 11 11 11 11 11 10 10 10 10 10 10 10 10 10 10 10 10 9 9 9 9 9 9 9 9 9 9 9 9 9 9 9 9 9
10 10 10 11 11 11 11 11 11 11 11 10 10 10 10 10 10 10 10 10 10 10 10 10 9 9 9 9 9 9 9 9 9 9 9 9 9 9 9 9 9 9 9
9 10 10 10 10 10 10 10 10 10 10 10 10 10 9 9 9 9 9 9 9 9 9 9 9 9 9 9 9 8 8 8 8 9 9 8 8 8 8 8 8 8 8
9 9 9 9 10 10 10 10 10 10 9 9 9 9 9 9 9 9 9 9 9 9 9 9 8 8 9 9 9 8 8 8 8 8 8 8 8 8 8 8 8 8 8
8 8 8 9 9 9 9 9 9 9 9 9 9 8 8 8 8 8 8 8 8 8 8 8 8 8 8 8 8 8 8 8 8 7 7 7 7 7 7 7 7 7 7
8 8 8 8 8 8 8 8 8 8 8 8 8 7 7 7 8 8 8 8 8 8 8 8 8 8 8 8 8 8 8 8 7 7 7 7 7 7 7 7 7 7 7
7 7 7 7 7 7 7 7 8 8 8 7 7 7 7 7 7 7 7 7 7 7 7 7 7 7 7 7 7 7 7 7 7 7 7 6 6 6 6 6 6 6 7
6 6 6 6 6 6 7 7 7 7 7 6 6 6 6 6 6 6 6 7 7 7 7 7 7 7 7 6 6 7 7 6 6 6 6 6 6 6 6 6 6 6 6
6 6 6 6 6 6 6 6 6 6 6 6 6 6 6 6 6 6 6 6 6 6 6 6 6 6 6 6 6 6 6 6 6 6 6 6 6 6 5 5 5 5 5
5 5 5 5 5 5 5 5 5 5 5 5 5 5 5 5 5 5 5 5 5 5 6 6 6 6 5 5 6 6 6 5 5 5 5 5 5 5 5 5 5 5 5
4 4 4 4 4 4 4 5 5 5 5 5 5 5 5 5 5 4 4 4 4 4 5 5 5 5 5 5 5 5 5 5 5 5 5 5 5 5 5 5 5 5 5
4 4 4 4 4 4 4 4 4 4 4 4 4 4 4 4 4 4 4 4 3 4 4 4 4 4 4 4 4 5 4 4 4 4 4 4 4 4 4 4 4 4 4
3 3 3 3 3 3 3 3 3 4 4 4 4 4 4 4 4 3 3 3 3 3 3 4 4 4 4 4 4 4 4 4 4 4 4 4 4 4 4 4 4 4 4
2 2 2 3 3 3 3 3 3 3 3 3 3 3 3 3 3 3 3 3 3 2 2 3 3 3 3 3 3 3 3 3 3 3 3 3 3 3 3 3 3 3 3
2 2 2 2 2 2 2 2 2 2 2 2 2 2 3 3 3 2 2 2 2 2 2 2 2 2 2 2 2 3 3 3 3 3 3 3 3 3 3 3 3 2 2
2 2 2 2 2 2 2 2 2 2 2 2 2 2 2 2 2 2 2 2 2 1 1 1 1 1 2 2 2 2 2 2 2 2 2 2 2 2 2 2 2 2 2
1 1 1 1 1 1 1 1 1 1 1 1 1 1 1 1 1 1 1 1 1 1 1 1 1 1 1 1 1 1 1 1 1 2 2 2 2 2 2 2 2 2 1
0 0 0 0 0 0 0 1 1 1 1 1 1 1 1 1 1 1 1 1 1 1 1 1 1 0 0 0 0 0 1 1 1 1 1 1 1 1 1 1 1 1 1
-0 -0 -0 -0 -0 -0 -0 -0 0 0 0 0 0 0 0 0 0 0 0 0 0 0 0 0 -0 -0 -0 -0 -0 -0 -0 0 0 0 1 1 1 1 1 1 1 1 1
-1 -1 -1 -1 -1 -1 -1 -0 -0 -1 -1 -1 -1 -0 -0 -0 -0 -0 -0 -0 -0 -0 -0 -0 -0 -0 -0 -0 -0 -1 -1 -1 -0 -0 0 0 0 0 0 0 0 0 0
-1 -1 -1 -1 -1 -1 -1 -1 -1 -1 -1 -1 -1 -1 -1 -1 -1 -1 -1 -1 -1 -1 -1 -1 -1 -1 -1 -1 -1 -1 -1 -1 -1 -1 -1 -0 -0 -0 -0 -0 -0 -0 -0
-1 -1 -1 -1 -1 -1 -1 -1 -2 -2 -2 -1 -1 -1 -1 -1 -1 -1 -1 -1 -1 -1 -1 -1 -1 -1 -1 -1 -1 -1 -1 -1 -1 -1 -1 -1 -1 -1 -1 -1 -1 -1 -1
-2 -2 -2 -2 -2 -2 -2 -2 -2 -2 -2 -2 -2 -2 -2 -2 -2 -2 -2 -1 -1 -1 -1 -1 -1 -1 -1 -1 -2 -2 -1 -2 -2 -2 -2 -2 -2 -1 -1 -1 -1 -1 -1
-2 -2 -2 -2 -2 -2 -2 -2 -2 -3 -3 -3 -3 -2 -2 -2 -2 -2 -2 -2 -2 -2 -2 -2 -2 -2 -2 -2 -2 -2 -2 -2 -2 -2 -2 -2 -2 -2 -2 -2 -2 -2 -2
Wind_Speed
1 1 2 2 2 3 3 3 3 3 3 3 3 3 3 3 3 2 2 3 1 0 1 0 0 1 1 1 0 1 1 2 3 3 3 4 4 5 6 6 7 8 8
0 1 1 1 2 2 3 3 3 3 3 2 3 3 3 2 2 2 1 2 3 2 1 1 0 0 0 0 1 2 2 3 4 4 5 5 5 6 6 7 8 9 9
1 1 1 1 1 2 2 3 3 3 3 3 3 3 2 2 2 2 1 1 1 1 1 1 1 1 1 1 2 2 3 3 4 5 6 6 7 7 8 8 9 9 10
1 0 0 0 0 1 2 3 3 3 3 3 2 2 2 2 3 2 2 1 1 0 0 1 1 2 2 2 2 3 3 4 5 6 6 7 8 8 9 9 10 11 11
1 0 0 1 0 1 2 2 3 3 3 3 2 2 2 2 2 2 2 1 1 1 1 0 1 2 3 3 3 4 4 5 6 7 7 8 8 9 10 10 11 11 12
1 0 0 0 0 0 1 2 2 2 2 2 2 2 2 2 2 2 2 2 1 2 2 2 2 2 2 3 4 5 6 6 7 8 8 9 9 10 10 10 11 11 12
1 1 1 0 0 1 1 1 2 2 2 2 2 1 2 2 2 2 2 2 2 2 3 3 3 3 3 3 4 5 6 7 7 8 8 9 9 10 11 11 12 12 13
1 0 1 1 1 1 1 1 1 1 1 2 1 1 2 2 2 3 3 3 3 3 3 3 4 4 4 3 3 4 6 8 8 9 9 10 10 10 11 12 12 13 13
1 1 1 2 1 2 2 2 3 3 2 2 1 1 2 2 1 2 3 3 3 3 4 4 5 5 4 4 4 4 5 7 8 9 10 10 11 11 11 12 12 12 13
1 1 2 2 2 2 3 2 3 3 4 3 2 1 2 1 2 2 3 3 4 5 4 4 5 5 5 5 5 5 5 7 8 9 11 11 11 11 12 12 13 13 13
1 1 2 2 3 3 3 2 3 3 3 4 3 2 2 2 3 3 4 4 4 4 5 5 5 5 6 6 5 5 6 8 9 10 11 11 11 12 12 13 13 14 14
2 2 2 2 3 3 3 3 3 4 4 4 4 3 3 3 3 4 5 5 5 4 5 5 6 5 6 6 6 6 8 8 9 10 10 11 12 12 13 13 14 14 14
3 3 3 3 3 3 3 4 4 4 5 5 5 5 4 4 4 4 4 5 5 4 4 5 5 6 6 6 6 7 9 9 9 10 11 11 12 12 13 13 14 14 14
4 4 4 4 4 4 4 4 4 5 5 5 6 6 5 5 5 4 4 4 4 5 5 6 4 5 5 6 6 8 8 9 10 11 11 12 12 12 12 12 13 13 14
3 5 4 4 4 4 4 4 5 5 5 6 6 7 6 5 5 5 5 5 4 5 6 5 4 4 5 6 7 8 8 8 10 11 11 12 12 12 12 12 13 13 13
4 5 5 5 5 4 4 5 5 5 5 5 5 6 6 5 5 5 5 5 5 6 6 5 5 5 5 6 7 8 8 9 10 11 11 12 12 12 12 12 13 13 13
4 5 5 5 5 5 5 5 5 5 6 6 6 6 6 6 5 5 5 6 6 6 7 7 6 5 6 6 6 6 7 8 8 10 11 12 12 12 12 12 12 13 13
5 5 5 5 6 5 5 6 6 6 6 7 6 6 6 5 6 6 6 6 6 6 7 8 7 6 7 6 6 6 6 7 8 8 10 11 11 11 11 11 11 11 11
4 4 5 5 5 5 5 6 6 6 7 6 6 6 6 6 6 5 6 6 6 6 6 6 7 6 6 5 6 7 7 6 7 8 9 10 10 11 11 11 10 11 11
3 4 4 5 5 5 5 5 5 6 6 5 5 6 6 7 7 6 6 6 6 6 6 6 6 5 5 5 5 6 6 6 6 6 7 8 9 10 11 11 10 10 11
3 3 4 4 5 5 5 5 5 5 5 5 5 5 6 6 7 7 6 6 6 5 5 5 5 5 5 5 5 5 6 6 7 5 6 6 6 6 7 8 9 9 10
2 3 4 4 5 4 5 6 5 5 5 5 5 5 5 5 6 7 8 8 7 6 6 6 6 7 8 7 5 5 5 6 6 4 5 6 5 6 6 6 7 8 10
2 3 3 4 4 4 5 5 5 4 4 4 5 4 3 4 5 4 5 6 6 7 8 8 8 8 7 7 6 7 7 7 7 5 5 6 5 6 5 6 8 8 9
2 3 3 3 3 3 3 4 4 4 3 4 4 4 4 4 4 4 4 4 4 4 5 6 6 7 6 6 6 7 7 6 6 5 5 6 6 6 5 5 7 8 9
2 3 3 2 2 2 1 2 2 2 2 3 3 3 4 4 4 4 3 3 4 4 4 5 7 7 6 7 6 4 4 4 5 5 4 5 5 5 6 6 5 7 8
2 2 2 2 2 2 2 1 2 2 2 2 3 3 3 4 4 4 3 3 3 4 4 4 4 4 4 4 5 5 5 5 5 4 3 4 4 4 4 4 4 5 6
Wind_Direction
184 167 161 164 176 170 171 173 169 163 169 167 166 166 165 170 166 154 129 101 83 348 310 272 211 214 196 209 248 282 293 286 284 289 293 300 306 305 302 304 306 308 309
153 182 166 175 178 178 179 182 169 168 172 174 174 174 179 180 179 179 168 119 81 51 35 51 35 303 302 336 338 314 310 289 284 290 295 299 299 300 303 303 303 303 303
14 179 162 170 177 176 175 176 173 172 170 176 184 185 187 193 189 186 175 167 141 85 45 26 7 0 340 341 345 334 333 318 299 289 288 291 294 295 297 299 302 303 302
20 84 133 149 107 173 174 174 183 180 176 182 191 195 192 188 193 188 178 173 178 211 144 30 357 339 324 310 309 315 324 326 323 314 301 292 292 292 294 295 297 297 298
28 17 44 40 60 164 175 177 187 187 183 185 192 197 202 199 195 188 192 193 202 247 252 208 274 321 321 306 304 307 313 312 311 311 308 302 299 297 294 292 293 295 297
15 0 29 74 88 157 182 176 183 178 187 192 191 198 206 208 202 202 213 215 229 249 257 258 245 252 307 309 302 303 306 304 303 305 309 309 306 305 302 302 302 301 299
16 358 324 183 131 189 211 188 173 163 176 182 191 204 216 212 220 221 228 229 231 237 253 259 255 258 255 274 298 309 311 309 307 307 308 308 305 306 305 301 300 302 303
7 353 283 254 207 209 201 188 174 176 175 181 196 207 220 216 216 227 225 230 242 238 242 248 250 252 260 265 284 304 312 309 306 304 304 306 305 304 304 306 305 301 301
324 265 249 241 220 213 210 211 203 193 197 197 211 214 216 229 265 209 224 229 237 243 243 242 245 249 252 259 268 277 297 301 301 300 303 304 305 305 304 302 303 303 301
297 265 243 237 226 221 212 213 220 216 200 203 203 238 269 265 241 242 222 225 238 244 243 244 245 247 252 256 264 279 291 292 295 299 301 301 302 303 305 305 302 302 302
307 286 247 236 234 233 225 221 229 226 217 216 214 221 246 248 254 256 255 245 247 245 247 247 249 249 249 253 258 273 281 282 288 294 294 296 297 299 302 305 304 303 302
269 276 262 242 237 240 233 228 230 231 229 226 227 220 224 227 237 245 254 251 256 255 252 247 247 248 248 252 255 271 276 275 282 288 289 290 291 294 298 301 303 304 301
255 257 264 254 243 238 234 232 230 234 235 232 230 232 232 239 242 243 253 260 269 270 256 246 247 248 250 254 258 270 269 270 279 283 285 288 288 290 293 296 299 302 304
251 252 255 253 248 241 232 231 232 233 237 239 236 237 236 234 232 233 242 253 266 264 255 255 253 247 254 256 265 266 265 267 274 280 283 283 284 285 289 292 296 299 300
255 245 244 243 244 243 239 234 234 233 235 237 239 237 239 238 235 233 234 236 248 264 266 259 258 254 262 264 268 266 269 272 275 277 277 279 280 281 285 289 291 293 295
260 247 244 241 238 240 242 241 244 242 240 239 241 242 242 241 238 235 234 238 240 253 265 269 273 280 273 271 272 271 272 276 270 272 275 278 278 279 281 284 287 289 293
258 245 241 240 238 239 240 241 243 245 246 244 243 244 247 245 240 234 234 234 237 243 257 272 277 280 277 272 270 272 275 276 276 271 275 277 278 278 278 280 283 287 292
257 250 244 240 240 241 242 241 244 246 246 243 244 246 249 248 245 237 235 238 242 244 251 264 273 274 274 272 271 272 275 279 279 276 275 277 277 278 277 278 281 286 291
259 253 245 240 239 241 245 246 245 249 247 246 244 246 250 248 248 247 242 244 248 249 251 256 267 272 274 271 272 273 275 277 280 279 278 274 274 277 277 277 280 283 288
255 253 249 248 246 245 248 249 250 252 251 252 252 253 252 249 249 251 248 248 250 250 250 253 263 270 272 273 271 273 278 276 278 277 278 277 276 274 272 275 278 282 286
263 259 255 253 250 248 249 251 250 251 253 254 257 259 259 261 262 260 255 250 247 247 250 254 260 265 263 264 263 270 274 281 280 272 280 278 278 275 275 272 273 281 284
282 269 261 258 258 254 257 254 253 253 252 255 259 265 265 264 267 267 263 259 254 249 249 252 256 256 259 263 264 262 269 277 277 274 281 281 276 274 276 277 286 285 288
304 287 276 265 261 258 258 252 250 257 254 256 259 263 268 271 273 271 268 267 264 263 259 256 255 258 263 262 259 261 261 269 272 281 284 278 276 275 277 280 286 287 289
316 309 299 288 279 272 263 251 255 252 251 257 261 263 265 273 273 276 273 275 276 276 271 264 261 266 272 272 266 266 269 275 278 278 274 275 281 281 286 281 283 285 290
324 317 308 311 301 302 291 260 265 258 256 268 274 275 274 273 276 281 272 271 278 286 285 273 275 274 276 272 268 267 261 266 274 277 270 270 283 291 288 281 286 288 291
327 333 334 327 317 312 333 312 286 261 265 275 279 280 277 278 286 290 271 261 269 283 291 292 287 282 277 273 269 261 261 265 276 278 273 274 281 294 286 276 286 298 294
Height
1510 1511 1512 1513 1514 1515 1516 1517 1518 1519 1520 1520 1521 1522 1523 1524 1524 1525 1525 1526 1526 1527 1527 1527 1527 1527 1527 1527 1527 1527 1526 1526 1525 1525 1524 1523 1523 1522 1522 1521 1520 1520 1519
1507 1508 1509 1510 1512 1513 1514 1515 1516 1517 1518 1518 1519 1520 1521 1522 1522 1523 1524 1524 1524 1524 1525 1525 1525 1526 1525 1525 1525 1525 1524 1524 1524 1523 1522 1521 1521 1520 1519 1519 1518 1517 1516
1504 1506 1507 1508 1509 1510 1511 1513 1514 1515 1516 1516 1517 1518 1519 1519 1520 1521 1521 1522 1522 1522 1523 1523 1523 1523 1523 1523 1523 1523 1522 1522 1521 1520 1520 1519 1518 1518 1517 1516 1515 1515 1514
1502 1503 1504 1505 1506 1507 1509 1510 1511 1512 1513 1514 1515 1515 1516 1517 1518 1518 1519 1519 1520 1520 1520 1520 1521 1521 1521 1521 1521 1520 1520 1519 1519 1518 1517 1516 1516 1515 1514 1513 1512 1511 1511
1499 1500 1502 1503 1504 1505 1506 1507 1508 1509 1510 1511 1512 1513 1513 1514 1515 1515 1516 1517 1517 1517 1518 1518 1518 1518 1518 1518 1518 1517 1517 1517 1516 1515 1515 1514 1513 1512 1511 1510 1509 1508 1507
1497 1498 1499 1500 1501 1502 1503 1504 1505 1506 1507 1508 1509 1510 1510 1511 1512 1513 1513 1514 1515 1515 1515 1515 1515 1515 1515 1515 1514 1514 1514 1514 1513 1512 1511 1511 1510 1509 1508 1507 1506 1505 1504
1495 1495 1496 1496 1497 1499 1500 1501 1502 1503 1504 1506 1507 1507 1508 1508 1509 1510 1510 1511 1511 1512 1512 1512 1512 1512 1511 1511 1511 1511 1510 1510 1509 1509 1508 1507 1507 1505 1505 1504 1502 1501 1500
1492 1492 1493 1494 1494 1495 1497 1498 1498 1499 1500 1502 1504 1504 1505 1507 1505 1506 1507 1508 1508 1508 1508 1509 1509 1508 1508 1508 1507 1507 1506 1506 1505 1505 1504 1504 1503 1502 1500 1500 1498 1497 1495
1489 1489 1490 1491 1491 1492 1493 1494 1495 1496 1497 1499 1500 1502 1503 1502 1503 1503 1504 1504 1505 1505 1505 1505 1505 1505 1504 1504 1504 1503 1502 1502 1501 1501 1500 1499 1498 1497 1496 1495 1494 1492 1491
1486 1486 1487 1487 1488 1489 1489 1490 1492 1493 1495 1495 1496 1498 1499 1499 1501 1500 1501 1501 1501 1501 1502 1502 1502 1501 1501 1500 1500 1499 1498 1498 1497 1496 1496 1495 1494 1493 1492 1490 1489 1488 1486
1482 1482 1483 1484 1485 1485 1486 1487 1489 1490 1491 1492 1492 1493 1495 1496 1497 1497 1497 1497 1498 1498 1497 1498 1498 1497 1497 1496 1495 1495 1494 1493 1492 1492 1491 1490 1489 1488 1487 1486 1484 1483 1481
1479 1479 1480 1480 1481 1481 1482 1483 1485 1486 1487 1488 1489 1490 1491 1492 1493 1494 1494 1493 1493 1493 1493 1493 1493 1493 1493 1492 1491 1490 1490 1489 1488 1487 1486 1485 1484 1483 1482 1481 1479 1478 1476
1476 1476 1477 1477 1477 1478 1479 1480 1481 1482 1483 1484 1485 1486 1487 1488 1490 1490 1490 1489 1489 1489 1489 1489 1489 1488 1488 1487 1486 1486 1485 1484 1483 1482 1481 1480 1479 1478 1477 1476 1474 1472 1471
1472 1473 1473 1473 1474 1474 1475 1476 1477 1478 1479 1480 1481 1482 1483 1484 1485 1485 1486 1486 1485 1486 1485 1485 1484 1484 1483 1483 1482 1481 1480 1479 1478 1477 1476 1475 1474 1473 1472 1470 1469 1467 1466
1469 1469 1470 1470 1470 1471 1471 1472 1473 1474 1475 1476 1477 1478 1479 1479 1480 1481 1482 1482 1483 1482 1481 1480 1480 1479 1479 1478 1477 1476 1475 1474 1473 1472 1471 1470 1469 1468 1467 1465 1464 1462 1461
1465 1465 1465 1466 1467 1467 1468 1468 1469 1470 1471 1471 1472 1473 1474 1475 1475 1476 1477 1477 1478 1478 1477 1475 1475 1475 1474 1473 1472 1471 1470 1469 1468 1467 1466 1465 1464 1463 1461 1460 1459 1458 1456
1462 1462 1462 1462 1463 1463 1464 1465 1465 1466 1466 1467 1468 1468 1469 1470 1470 1471 1472 1472 1473 1473 1472 1471 1471 1470 1470 1468 1467 1467 1466 1465 1463 1462 1461 1460 1458 1457 1456 1455 1454 1452 1451
1458 1458 1458 1459 1459 1460 1460 1461 1461 1462 1462 1462 1463 1464 1464 1465 1466 1466 1467 1467 1468 1468 1467 1466 1466 1466 1465 1464 1463 1462 1461 1460 1459 1457 1456 1455 1453 1452 1451 1450 1448 1447 1446
1454 1454 1454 1455 1455 1455 1456 1456 1457 1457 1458 1458 1458 1459 1459 1460 1461 1461 1462 1462 1463 1463 1462 1462 1461 1460 1460 1459 1458 1458 1457 1455 1454 1453 1451 1450 1448 1447 1446 1445 1443 1442 1440
1450 1450 1450 1450 1451 1451 1451 1452 1452 1453 1453 1453 1454 1454 1455 1455 1456 1457 1457 1458 1458 1458 1458 1457 1456 1455 1455 1454 1454 1453 1451 1451 1449 1448 1446 1445 1444 1442 1441 1440 1438 1437 1435
1447 1447 1447 1447 1447 1447 1447 1447 1448 1448 1448 1449 1449 1449 1450 1451 1451 1452 1452 1453 1453 1453 1453 1452 1451 1451 1450 1450 1449 1448 1447 1446 1445 1443 1441 1440 1439 1437 1436 1434 1433 1431 1430
1444 1444 1444 1443 1443 1443 1443 1444 1444 1444 1444 1445 1445 1445 1445 1446 1446 1447 1447 1448 1448 1448 1448 1447 1447 1446 1446 1446 1445 1444 1443 1442 1440 1439 1437 1436 1435 1432 1431 1430 1428 1427 1425
1442 1441 1440 1440 1440 1440 1440 1440 1440 1440 1441 1441 1441 1441 1441 1442 1442 1442 1442 1443 1443 1443 1443 1443 1442 1442 1442 1441 1441 1440 1439 1438 1436 1435 1433 1431 1430 1428 1427 1425 1424 1422 1420
1439 1439 1438 1437 1437 1437 1437 1437 1437 1437 1437 1438 1438 1438 1438 1438 1438 1438 1438 1438 1438 1438 1438 1438 1437 1437 1437 1436 1436 1436 1434 1433 1432 1431 1430 1427 1425 1424 1423 1421 1419 1418 1416
1438 1437 1436 1435 1434 1434 1434 1434 1434 1434 1434 1434 1434 1434 1434 1434 1434 1434 1434 1434 1433 1433 1433 1433 1433 1432 1431 1432 1432 1431 1430 1429 1427 1426 1426 1424 1422 1420 1418 1416 1415 1413 1412
1436 1435 1434 1433 1432 1432 1431 1431 1432 1432 1431 1431 1431 1431 1431 1431 1430 1430 1430 1430 1429 1429 1429 1428 1428 1428 1427 1427 1427 1427 1426 1425 1424 1423 1422 1421 1419 1417 1414 1412 1411 1409 1408